| time (UTC) | temp F | wind direction | speed knots | gust knots | rain 1hr in | rain 24hr in | rain mn in | humidity % | barometer mb |
| 20260505001704 | 71 | 214 | 0.0 | 0.0 | 0.00 | 0.00 | 0.00 | 36 | 1014.9 |
| 20260505001203 | 71 | 214 | 0.0 | 0.0 | 0.00 | 0.00 | 0.00 | 35 | 1014.9 |
| 20260505000704 | 72 | 214 | 0.0 | 0.0 | 0.00 | 0.00 | 0.00 | 35 | 1014.8 |
| 20260505000204 | 72 | 214 | 0.0 | 0.0 | 0.00 | 0.00 | 0.00 | 34 | 1014.7 |
| 20260504235704 | 73 | 214 | 0.0 | 0.0 | 0.00 | 0.00 | 0.00 | 34 | 1014.7 |
| 20260504235549 | 73 | 214 | 0.0 | 1.7 | 0.00 | 0.00 | 0.00 | 33 | 1014.6 |
| 20260504235543 | 73 | 214 | 0.0 | 0.9 | 0.00 | 0.00 | 0.00 | 34 | 1014.7 |
| 20260504234204 | 74 | 214 | 0.0 | 1.7 | 0.00 | 0.00 | 0.00 | 33 | 1014.5 |
| 20260504233807 | 74 | 215 | 0.0 | 1.7 | 0.00 | 0.00 | 0.00 | 32 | 1014.4 |
| 20260504233747 | 74 | 214 | 0.0 | 0.9 | 0.00 | 0.00 | 0.00 | 33 | 1014.4 |
| 20260504232704 | 74 | 219 | 0.0 | 1.7 | 0.00 | 0.00 | 0.00 | 32 | 1014.4 |
| 20260504232505 | 75 | 225 | 0.9 | 3.5 | 0.00 | 0.00 | 0.00 | 31 | 1014.4 |
| 20260504231704 | 75 | 211 | 0.9 | 3.5 | 0.00 | 0.00 | 0.00 | 31 | 1014.4 |
| 20260504231509 | 75 | 170 | 0.9 | 2.6 | 0.00 | 0.00 | 0.00 | 31 | 1014.3 |
| 20260504230704 | 76 | 204 | 0.9 | 2.6 | 0.00 | 0.00 | 0.00 | 29 | 1014.4 |
| 20260504230504 | 76 | 213 | 0.9 | 2.6 | 0.00 | 0.00 | 0.00 | 31 | 1014.3 |
| 20260504225704 | 76 | 194 | 0.9 | 3.5 | 0.00 | 0.00 | 0.00 | 30 | 1014.3 |
| 20260504225202 | 76 | 197 | 0.9 | 3.5 | 0.00 | 0.00 | 0.00 | 29 | 1014.3 |
| 20260504224805 | 77 | 228 | 0.9 | 3.5 | 0.00 | 0.00 | 0.00 | 29 | 1014.3 |
| 20260504224745 | 76 | 202 | 0.9 | 2.6 | 0.00 | 0.00 | 0.00 | 28 | 1014.3 |
| 20260504223702 | 77 | 217 | 0.9 | 3.5 | 0.00 | 0.00 | 0.00 | 29 | 1014.2 |
| 20260504223510 | 77 | 242 | 1.7 | 2.6 | 0.00 | 0.00 | 0.00 | 27 | 1014.3 |
| 20260504222702 | 77 | 211 | 0.9 | 3.5 | 0.00 | 0.00 | 0.00 | 28 | 1014.3 |
| 20260504222201 | 77 | 188 | 1.7 | 4.3 | 0.00 | 0.00 | 0.00 | 28 | 1014.2 |
| 20260504222029 | 78 | 169 | 1.7 | 4.3 | 0.00 | 0.00 | 0.00 | 26 | 1014.4 |
| 20260504221200 | 78 | 161 | 1.7 | 4.3 | 0.00 | 0.00 | 0.00 | 25 | 1014.3 |
| 20260504221005 | 78 | 70 | 1.7 | 5.2 | 0.00 | 0.00 | 0.00 | 24 | 1014.4 |
| 20260504220202 | 79 | 259 | 1.7 | 5.2 | 0.00 | 0.00 | 0.00 | 24 | 1014.3 |
| 20260504215705 | 79 | 213 | 0.9 | 5.2 | 0.00 | 0.00 | 0.00 | 22 | 1014.3 |
| 20260504215209 | 79 | 247 | 0.9 | 4.3 | 0.00 | 0.00 | 0.00 | 26 | 1014.3 |
| 20260504214659 | 79 | 201 | 1.7 | 4.3 | 0.00 | 0.00 | 0.00 | 24 | 1014.3 |
| 20260504214153 | 79 | 231 | 1.7 | 3.5 | 0.00 | 0.00 | 0.00 | 25 | 1014.3 |
| 20260504213647 | 79 | 229 | 1.7 | 3.5 | 0.00 | 0.00 | 0.00 | 25 | 1014.4 |
| 20260504213144 | 79 | 196 | 1.7 | 3.5 | 0.00 | 0.00 | 0.00 | 25 | 1014.5 |
| 20260504212643 | 79 | 223 | 1.7 | 5.2 | 0.00 | 0.00 | 0.00 | 25 | 1014.5 |
| 20260504212145 | 79 | 308 | 1.7 | 5.2 | 0.00 | 0.00 | 0.00 | 25 | 1014.4 |
| 20260504211645 | 79 | 128 | 1.7 | 4.3 | 0.00 | 0.00 | 0.00 | 25 | 1014.4 |
| 20260504211141 | 79 | 194 | 1.7 | 4.3 | 0.00 | 0.00 | 0.00 | 25 | 1014.5 |
| 20260504210639 | 79 | 279 | 1.7 | 4.3 | 0.00 | 0.00 | 0.00 | 23 | 1014.5 |
| 20260504210135 | 80 | 192 | 1.7 | 3.5 | 0.00 | 0.00 | 0.00 | 25 | 1014.6 |
| 20260504205635 | 80 | 221 | 1.7 | 3.5 | 0.00 | 0.00 | 0.00 | 26 | 1014.5 |
| 20260504205135 | 80 | 209 | 0.9 | 3.5 | 0.00 | 0.00 | 0.00 | 26 | 1014.7 |
| 20260504204633 | 80 | 116 | 0.9 | 2.6 | 0.00 | 0.00 | 0.00 | 27 | 1014.7 |
| 20260504204446 | 80 | 310 | 1.7 | 3.5 | 0.00 | 0.00 | 0.00 | 26 | 1014.8 |
| 20260504203635 | 80 | 153 | 0.9 | 3.5 | 0.00 | 0.00 | 0.00 | 26 | 1014.8 |
| 20260504203133 | 81 | 110 | 0.9 | 3.5 | 0.00 | 0.00 | 0.00 | 26 | 1014.9 |
| 20260504202942 | 81 | 221 | 0.9 | 3.5 | 0.00 | 0.00 | 0.00 | 28 | 1015.0 |
| 20260504202130 | 79 | 213 | 1.7 | 5.2 | 0.00 | 0.00 | 0.00 | 29 | 1015.1 |
| 20260504201748 | 80 | 148 | 0.9 | 3.5 | 0.00 | 0.00 | 0.00 | 28 | 1015.0 |
| 20260504201726 | 80 | 132 | 0.9 | 5.2 | 0.00 | 0.00 | 0.00 | 27 | 1015.0 |
| 20260504200630 | 78 | 177 | 1.7 | 5.2 | 0.00 | 0.00 | 0.00 | 27 | 1015.1 |
| 20260504200127 | 79 | 105 | 1.7 | 5.2 | 0.00 | 0.00 | 0.00 | 26 | 1015.1 |
| 20260504195620 | 79 | 144 | 1.7 | 4.3 | 0.00 | 0.00 | 0.00 | 27 | 1015.3 |
| 20260504195114 | 79 | 132 | 1.7 | 4.3 | 0.00 | 0.00 | 0.00 | 26 | 1015.2 |
| 20260504194609 | 79 | 307 | 1.7 | 4.3 | 0.00 | 0.00 | 0.00 | 26 | 1015.3 |
| 20260504194105 | 78 | 173 | 1.7 | 4.3 | 0.00 | 0.00 | 0.00 | 28 | 1015.4 |
| 20260504193605 | 79 | 123 | 1.7 | 2.6 | 0.00 | 0.00 | 0.00 | 26 | 1015.5 |
| 20260504193107 | 79 | 175 | 1.7 | 4.3 | 0.00 | 0.00 | 0.00 | 27 | 1015.5 |
| 20260504192918 | 80 | 215 | 1.7 | 4.3 | 0.00 | 0.00 | 0.00 | 27 | 1015.6 |
| 20260504192359 | 79 | 222 | 1.7 | 3.5 | 0.00 | 0.00 | 0.00 | 29 | 1015.6 |
| 20260504191610 | 79 | 134 | 0.9 | 3.5 | 0.00 | 0.00 | 0.00 | 28 | 1015.6 |
| 20260504191108 | 79 | 129 | 0.9 | 3.5 | 0.00 | 0.00 | 0.00 | 26 | 1015.7 |
| 20260504190605 | 79 | 202 | 1.7 | 3.5 | 0.00 | 0.00 | 0.00 | 27 | 1015.8 |
| 20260504190106 | 79 | 226 | 0.9 | 3.5 | 0.00 | 0.00 | 0.00 | 25 | 1015.8 |
| 20260504185605 | 79 | 185 | 0.9 | 4.3 | 0.00 | 0.00 | 0.00 | 26 | 1015.9 |
| 20260504185409 | 78 | 213 | 0.9 | 4.3 | 0.00 | 0.00 | 0.00 | 25 | 1016.0 |
| 20260504184605 | 77 | 50 | 1.7 | 3.5 | 0.00 | 0.00 | 0.00 | 26 | 1016.0 |
| 20260504184105 | 77 | 121 | 1.7 | 3.5 | 0.00 | 0.00 | 0.00 | 27 | 1016.1 |
| 20260504183608 | 76 | 117 | 0.9 | 2.6 | 0.00 | 0.00 | 0.00 | 26 | 1016.1 |
| 20260504183411 | 76 | 119 | 1.7 | 4.3 | 0.00 | 0.00 | 0.00 | 27 | 1016.1 |
| 20260504182906 | 76 | 42 | 1.7 | 4.3 | 0.00 | 0.00 | 0.00 | 28 | 1016.2 |
| 20260504182101 | 76 | 130 | 1.7 | 3.5 | 0.00 | 0.00 | 0.00 | 28 | 1016.3 |
| 20260504181602 | 76 | 50 | 0.9 | 3.5 | 0.00 | 0.00 | 0.00 | 30 | 1016.2 |
| 20260504181056 | 77 | 30 | 0.9 | 3.5 | 0.00 | 0.00 | 0.00 | 28 | 1016.2 |
| 20260504180550 | 77 | 182 | 1.7 | 4.3 | 0.00 | 0.00 | 0.00 | 27 | 1016.2 |
| 20260504180044 | 76 | 53 | 1.7 | 4.3 | 0.00 | 0.00 | 0.00 | 27 | 1016.2 |
| 20260504175540 | 76 | 317 | 0.9 | 2.6 | 0.00 | 0.00 | 0.00 | 27 | 1016.2 |
| 20260504175039 | 74 | 197 | 1.7 | 3.5 | 0.00 | 0.00 | 0.00 | 31 | 1016.3 |
| 20260504174645 | 73 | 103 | 1.7 | 4.3 | 0.00 | 0.00 | 0.00 | 31 | 1016.4 |
| 20260504174626 | 74 | 50 | 1.7 | 4.3 | 0.00 | 0.00 | 0.00 | 29 | 1016.3 |
| 20260504173539 | 74 | 57 | 1.7 | 3.5 | 0.00 | 0.00 | 0.00 | 28 | 1016.6 |
| 20260504173038 | 75 | 336 | 0.9 | 2.6 | 0.00 | 0.00 | 0.00 | 28 | 1016.8 |
| 20260504172847 | 75 | 5 | 0.9 | 3.5 | 0.00 | 0.00 | 0.00 | 27 | 1016.9 |
| 20260504172037 | 74 | 258 | 0.9 | 3.5 | 0.00 | 0.00 | 0.00 | 28 | 1016.9 |
| 20260504171538 | 74 | 96 | 0.9 | 3.5 | 0.00 | 0.00 | 0.00 | 27 | 1016.8 |
| 20260504171039 | 74 | 69 | 0.9 | 3.5 | 0.00 | 0.00 | 0.00 | 26 | 1016.8 |
| 20260504170535 | 73 | 185 | 0.9 | 3.5 | 0.00 | 0.00 | 0.00 | 27 | 1016.9 |
| 20260504170334 | 73 | 41 | 1.7 | 2.6 | 0.00 | 0.00 | 0.00 | 28 | 1017.0 |
| 20260504151141 | 65 | 221 | 0.9 | 3.5 | 0.00 | 0.00 | 0.00 | 47 | 1018.3 |
| 20260504151111 | 65 | 10 | 1.7 | 3.5 | 0.00 | 0.00 | 0.00 | 46 | 1018.2 |
| 20260504141002 | 61 | 121 | 0.9 | 1.7 | 0.00 | 0.00 | 0.00 | 63 | 1018.1 |
| 20260504140504 | 60 | 132 | 0.9 | 1.7 | 0.00 | 0.00 | 0.00 | 62 | 1018.1 |
| 20260504130504 | 53 | 209 | 0.9 | 3.5 | 0.00 | 0.00 | 0.00 | 75 | 1018.3 |
| 20260504130309 | 52 | 269 | 0.9 | 3.5 | 0.00 | 0.00 | 0.00 | 76 | 1018.2 |
| 20260504110505 | 44 | 264 | 0.0 | 0.9 | 0.00 | 0.00 | 0.00 | 87 | 1017.9 |
| 20260504100501 | 44 | 264 | 0.0 | 0.9 | 0.00 | 0.00 | 0.00 | 85 | 1017.4 |
| 20260504082001 | 51 | 264 | 0.0 | 0.9 | 0.00 | 0.00 | 0.00 | 72 | 1017.2 |
| 20260504081503 | 51 | 264 | 0.0 | 0.9 | 0.00 | 0.00 | 0.00 | 71 | 1017.2 |
| 20260504080957 | 51 | 264 | 0.0 | 0.9 | 0.00 | 0.00 | 0.00 | 70 | 1017.1 |
| 20260504080451 | 51 | 264 | 0.0 | 0.9 | 0.00 | 0.00 | 0.00 | 70 | 1017.1 |
| 20260504050407 | 53 | 264 | 0.0 | 0.9 | 0.00 | 0.00 | 0.00 | 68 | 1017.4 |
| 20260504045904 | 53 | 264 | 0.0 | 0.9 | 0.00 | 0.00 | 0.00 | 68 | 1017.5 |
| 20260504045713 | 53 | 264 | 0.0 | 0.0 | 0.00 | 0.00 | 0.00 | 67 | 1017.5 |
| 20260504044904 | 53 | 264 | 0.0 | 0.0 | 0.00 | 0.00 | 0.00 | 67 | 1017.6 |
| 20260504044404 | 53 | 264 | 0.0 | 0.0 | 0.00 | 0.00 | 0.00 | 68 | 1017.5 |
| 20260504043904 | 53 | 264 | 0.0 | 0.9 | 0.00 | 0.00 | 0.00 | 68 | 1017.5 |
| 20260504043404 | 53 | 264 | 0.0 | 0.9 | 0.00 | 0.00 | 0.00 | 69 | 1017.5 |
| 20260504042904 | 53 | 264 | 0.0 | 0.9 | 0.00 | 0.00 | 0.00 | 69 | 1017.6 |
| 20260504042403 | 53 | 264 | 0.0 | 0.9 | 0.00 | 0.00 | 0.00 | 67 | 1017.6 |
| 20260504041903 | 53 | 264 | 0.0 | 0.0 | 0.00 | 0.00 | 0.00 | 66 | 1017.7 |
| 20260504041405 | 54 | 264 | 0.0 | 0.0 | 0.00 | 0.00 | 0.00 | 65 | 1017.8 |
| 20260504040904 | 54 | 264 | 0.0 | 0.0 | 0.00 | 0.00 | 0.00 | 65 | 1017.9 |
| 20260504040404 | 54 | 264 | 0.0 | 0.0 | 0.00 | 0.00 | 0.00 | 65 | 1017.9 |
| 20260504035907 | 54 | 264 | 0.0 | 0.0 | 0.00 | 0.00 | 0.00 | 64 | 1017.9 |
| 20260504035512 | 54 | 264 | 0.0 | 0.0 | 0.00 | 0.00 | 0.00 | 65 | 1017.9 |
| 20260504035447 | 54 | 264 | 0.0 | 0.0 | 0.00 | 0.00 | 0.00 | 64 | 1017.9 |
| 20260504034401 | 55 | 264 | 0.0 | 0.0 | 0.00 | 0.00 | 0.00 | 63 | 1017.9 |
| 20260504033901 | 55 | 264 | 0.0 | 0.0 | 0.00 | 0.00 | 0.00 | 62 | 1017.9 |
| 20260504033401 | 55 | 264 | 0.0 | 0.0 | 0.00 | 0.00 | 0.00 | 61 | 1018.0 |
| 20260504032901 | 55 | 264 | 0.0 | 0.0 | 0.00 | 0.00 | 0.00 | 61 | 1017.9 |
| 20260504032402 | 55 | 264 | 0.0 | 0.0 | 0.00 | 0.00 | 0.00 | 61 | 1017.9 |
| 20260504031900 | 55 | 264 | 0.0 | 0.0 | 0.00 | 0.00 | 0.00 | 61 | 1018.0 |
| 20260504031353 | 56 | 264 | 0.0 | 0.0 | 0.00 | 0.00 | 0.00 | 61 | 1017.9 |
| 20260504031149 | 56 | 264 | 0.0 | 0.0 | 0.00 | 0.00 | 0.00 | 60 | 1017.9 |
| 20260504030342 | 56 | 264 | 0.0 | 0.0 | 0.00 | 0.00 | 0.00 | 56 | 1017.9 |
| 20260504030139 | 57 | 264 | 0.0 | 0.0 | 0.00 | 0.00 | 0.00 | 56 | 1017.9 |
| 20260504025335 | 57 | 264 | 0.0 | 0.0 | 0.00 | 0.00 | 0.00 | 55 | 1017.8 |
| 20260504024832 | 57 | 264 | 0.0 | 0.9 | 0.00 | 0.00 | 0.00 | 55 | 1017.9 |
| 20260504024332 | 57 | 264 | 0.0 | 0.9 | 0.00 | 0.00 | 0.00 | 56 | 1017.8 |
| 20260504023833 | 57 | 264 | 0.0 | 0.9 | 0.00 | 0.00 | 0.00 | 55 | 1017.8 |
| 20260504023633 | 57 | 244 | 0.0 | 0.9 | 0.00 | 0.00 | 0.00 | 54 | 1017.7 |
| 20260504022830 | 57 | 244 | 0.0 | 0.9 | 0.00 | 0.00 | 0.00 | 54 | 1017.7 |
| 20260504022327 | 58 | 245 | 0.0 | 0.9 | 0.00 | 0.00 | 0.00 | 53 | 1017.6 |
| 20260504021827 | 58 | 245 | 0.0 | 0.9 | 0.00 | 0.00 | 0.00 | 53 | 1017.5 |
| 20260504021330 | 58 | 245 | 0.0 | 0.9 | 0.00 | 0.00 | 0.00 | 52 | 1017.5 |
| 20260504021132 | 58 | 245 | 0.0 | 0.0 | 0.00 | 0.00 | 0.00 | 52 | 1017.4 |
| 20260504020326 | 58 | 245 | 0.0 | 0.0 | 0.00 | 0.00 | 0.00 | 51 | 1017.3 |
| 20260504015825 | 58 | 245 | 0.0 | 0.9 | 0.00 | 0.00 | 0.00 | 51 | 1017.2 |
| 20260504015324 | 58 | 245 | 0.0 | 0.9 | 0.00 | 0.00 | 0.00 | 51 | 1017.2 |
| 20260504014823 | 59 | 245 | 0.0 | 0.0 | 0.00 | 0.00 | 0.00 | 50 | 1017.2 |
| 20260504014327 | 59 | 245 | 0.0 | 0.0 | 0.00 | 0.00 | 0.00 | 49 | 1017.1 |
| 20260504013821 | 59 | 245 | 0.0 | 0.9 | 0.00 | 0.00 | 0.00 | 49 | 1017.1 |
| 20260504013320 | 59 | 245 | 0.0 | 0.9 | 0.00 | 0.00 | 0.00 | 50 | 1017.0 |
| 20260504012826 | 59 | 246 | 0.0 | 0.9 | 0.00 | 0.00 | 0.00 | 50 | 1017.1 |
| 20260504012320 | 60 | 246 | 0.0 | 0.0 | 0.00 | 0.00 | 0.00 | 50 | 1017.0 |
| 20260504011819 | 60 | 246 | 0.0 | 0.0 | 0.00 | 0.00 | 0.00 | 49 | 1017.0 |
| 20260504011611 | 60 | 246 | 0.0 | 0.0 | 0.00 | 0.00 | 0.00 | 46 | 1016.9 |
| 20260504011133 | 61 | 246 | 0.0 | 0.9 | 0.00 | 0.00 | 0.00 | 45 | 1016.9 |
| 20260504010316 | 61 | 246 | 0.0 | 0.9 | 0.00 | 0.00 | 0.00 | 44 | 1016.8 |
| 20260504005816 | 62 | 246 | 0.0 | 0.9 | 0.00 | 0.00 | 0.00 | 44 | 1016.9 |
| 20260504005315 | 62 | 246 | 0.0 | 0.9 | 0.00 | 0.00 | 0.00 | 45 | 1016.8 |
| 20260504004816 | 62 | 246 | 0.0 | 0.0 | 0.00 | 0.00 | 0.00 | 45 | 1016.8 |
| 20260504004317 | 62 | 246 | 0.0 | 0.0 | 0.00 | 0.00 | 0.00 | 44 | 1016.8 |
| 20260504003818 | 62 | 246 | 0.0 | 0.0 | 0.00 | 0.00 | 0.00 | 44 | 1016.8 |
| 20260504003315 | 62 | 246 | 0.0 | 0.0 | 0.00 | 0.00 | 0.00 | 44 | 1016.7 |
| 20260504002813 | 63 | 246 | 0.0 | 0.0 | 0.00 | 0.00 | 0.00 | 44 | 1016.7 |
| 20260504002315 | 63 | 246 | 0.0 | 0.0 | 0.00 | 0.00 | 0.00 | 44 | 1016.6 |